Regional Weather Roundup
Issued by NWS

Home | Current Version | Previous Version | Text Only | Print | Product List | Glossary Off
Versions: 1 2 3 4 5 6 7 8 9 10 11 12 13 14 15 16 17 18 19 20 21 22 23 24 25 26 27 28 29 30 31 32 33 34 35 36 37 38 39 40 41 42 43 44 45 46 47 48 49 50

000
ASUS45 KPSR 220400
RWRAZ

PRELIMINARY ARIZONA REGIONAL HOURLY WEATHER ROUNDUP
NATIONAL WEATHER SERVICE PHOENIX AZ
900 PM MST THU AUG 21 2014

NOTE: FAIR INDICATES FEW OR NO CLOUDS BELOW 12,000 FEET WITH NO
SIGNIFICANT WEATHER AND/OR OBSTRUCTIONS TO VISIBILITY.

AZZ001>003-036-220500-
NORTHWEST ARIZONA

CITY           SKY/WX    TMP DP  RH WIND       PRES   REMARKS
KINGMAN        CLOUDY    67  60  78 NE6       30.08R
$$

AZZ004>008-015-016-018-220500-
NORTH CENTRAL ARIZONA

CITY           SKY/WX    TMP DP  RH WIND       PRES   REMARKS
GRAND CANYON     N/A    N/A N/A N/A MISG        N/A
WILLIAMS       MOCLDY    55  54  94 SE3       30.33R
PRESCOTT       MOCLDY    60  53  77 S5        30.18R
FLAGSTAFF      CLOUDY    54  52  93 CALM      30.30R
PAYSON         CLOUDY    66  55  68 W6        30.21R
PAGE           CLOUDY    74  49  41 S9G17     30.15R
$$

AZZ009>014-017-220500-
NORTHEAST ARIZONA

CITY           SKY/WX    TMP DP  RH WIND       PRES   REMARKS
WINSLOW        NOT AVBL
SAINT JOHNS    CLOUDY    61  57  87 SE6       30.22R
SHOW LOW       MOCLDY    59  52  77 SW5       30.29R
$$

AZZ023-220500-
GREATER PHOENIX AREA

CITY           SKY/WX    TMP DP  RH WIND       PRES   REMARKS
PHOENIX        TSTM      73  68  84 W26G36    29.97R
DEER VALLEY    CLOUDY    75  63  66 SW20G31   30.00R
SCOTTSDALE     CLOUDY    75  64  68 W21G33    30.01R
MESA-GATEWAY   MOCLDY    79  63  57 W23G30    30.01R
CHANDLER       MOCLDY    75  64  69 SW25      29.99R
$$

AZZ027-028-220500-
SOUTHWEST MARICOPA COUNTY AND PINAL COUNTY

CITY           SKY/WX    TMP DP  RH WIND       PRES   REMARKS
CASA GRANDE    MOCLDY    70  63  78 W23G31    30.01R
$$

AZZ503-504-507>509-220500-
SOUTHEAST ARIZONA

CITY           SKY/WX    TMP DP  RH WIND       PRES   REMARKS
TUCSON         CLOUDY    76  64  66 SW5       30.06R
NOGALES        CLOUDY    72  65  78 CALM      30.12R
SIERRA VISTA   MOCLDY    70  61  73 SW5       30.16S
SAFFORD        CLOUDY    78  54  43 NW8       30.03R
$$

AZZ020-021-025-026-031-220500-
SOUTHWEST ARIZONA

CITY           SKY/WX    TMP DP  RH WIND       PRES   REMARKS
YUMA           CLOUDY    74  64  71 N3        29.89R
$$

CAZ031-033-041-043-047-048-061-220500-
SOUTHERN CALIFORNIA

CITY           SKY/WX    TMP DP  RH WIND       PRES   REMARKS
DOWNTOWN L.A.  CLEAR     70  61  73 CALM      29.94R
L.A. AIRPORT   PTCLDY    69  61  75 W10       29.95R
SAN DIEGO      MOCLDY    71  62  73 NW8       29.95R
BURBANK        CLEAR     73  61  65 E10       29.94R
ONTARIO        MOCLDY    76  61  59 W8        29.96R
RIVERSIDE      CLEAR     76  61  59 NW5       29.95R
PALM SPRINGS   PTCLDY    85  55  35 E3        29.95R
EL CENTRO NAS  MOCLDY    73  67  81 SW5       29.90S
IMPERIAL       CLOUDY    74  66  76 SW3       29.90R
BLYTHE         CLOUDY    72  66  81 W5        29.90R
$$

NVZ020-UTZ003-220500-
SOUTHERN NEVADA-UTAH

CITY           SKY/WX    TMP DP  RH WIND       PRES   REMARKS
LAS VEGAS      NOT AVBL
SALT LAKE CITY MOCLDY    71  49  45 S8        30.00S
$$

NMZ009-TXZ055-220500-
NEW MEXICO-WEST TEXAS

CITY           SKY/WX    TMP DP  RH WIND       PRES   REMARKS
ALBUQUERQUE    MOCLDY    78  40  25 SE5       30.12R
EL PASO        CLOUDY    82  56  40 SW10      30.06R
$$


........................KEY........................
SKY/WX - SKY CONDITION/WEATHER
TMP    - TEMPERATURE IN FAHRENHEIT
DP     - DEW POINT IN FAHRENHEIT
RH     - RELATIVE HUMIDITY IN PERCENT
WIND   - DIRECTION AND SPEED IN MILES PER HOUR (MPH)
VRB    - VARIABLE WIND DIRECTION
PRES   - MEAN SEA LEVEL PRESSURE IN INCHES OF MERCURY
         F - FALLING PRESSURE   R - RISING PRESSURE
         S - STEADY PRESSURE
VSB    - VISIBILITY IN MILES
HX     - HEAT INDEX IN FAHRENHEIT
WCI    - WIND CHILL INDEX IN FAHRENHEIT
TC     - TEMPERATURE IN CELSIUS WHICH IS ALSO KNOWN AS
         TEMPERATURE IN CENTIGRADE
AFB    - AIR FORCE BASE
         LUKE AFB IS LUKE AIR FORCE BASE
         DAVIS-MONTHAN IS DAVIS-MONTHAN AIR FORCE BASE
NAS    - NAVAL AIR STATION
         EL CENTRO NAS IS EL CENTRO NAVAL AIR STATION
N/A    - NOT AVAILABLE


USA.gov is the U.S. government's official web portal to all federal, state and local government web resources and services.